Onweer radar Meer informatie blitzortung!


Regen radar Meer informatie rain snow radar


Bezoek onze andere website:

Template documentation
and downloads

And another site



15 daagse weersverwachting Naas, Leixlip (IE)

  • Overzicht
  • Per uur
  • 15 dagen
  • Extra
  • Vergelijk
  • Kaarten
  • Dagkaart
  • Meer »
  • Info
  • Statistieken
  • Directe link
    Temp 6h Neerslag Wind  
 04:59     21:56    Daglengte: 16:57 Vandaag
19:00
14°
 
5
 04:59     21:56    Daglengte: 16:57 Morgen
01:00
12°
0.9 mm
5
07:00
11°
 
5
13:00
17°
 
7
19:00
16°
3.7 mm
5
 04:59     21:57    Daglengte: 16:58 Dinsdag 18 Jun
01:00
11°
 
3
07:00
11°
 
3
13:00
17°
 
4
19:00
18°
 
2
 04:59     21:57    Daglengte: 16:58 Woensdag 19 Jun
01:00
12°
 
2
07:00
11°
 
2
13:00
17°
 
4
Locatie info
Region: Kildare
Latitude: 53.3644°N
Longitude: -6.4876°E
48 masl
Postcode: -1
Temp/Neerslag /Baro Onweer/Dauwpunt
    Temp Baro 1h Neerslag Dauwpunt Wind UV Bewolking  
 04:59     21:56    Daglengte: 16:57 Vandaag
19:00
14°
1006.3 hPa
50%
11.8°
5
Windvlaag: 5.8 m/s
34%
20:00
14°
1006.2 hPa 0.9 mm
78%
11.4°
7
Windvlaag: 5.6 m/s
27%
21:00
14°
1006.9 hPa
77%
11.1°
6
Windvlaag: 4.3 m/s
34%
22:00
13°
1007.6 hPa
78%
10.2°
5
Windvlaag: 2.2 m/s
33%
23:00
12°
1008.3 hPa
76%
9.8°
4
Windvlaag: 2.9 m/s
34%
 04:59     21:56    Daglengte: 16:57 Morgen
00:00
12°
1008.7 hPa
21%
9.5°
5
Windvlaag: 3.4 m/s
49%
01:00
12°
1009.0 hPa
54%
9.2°
5
Windvlaag: 4.2 m/s
69%
02:00
11°
1009.2 hPa
16%
8.9°
5
Windvlaag: 4.6 m/s
61%
03:00
11°
1009.3 hPa
14%
8.7°
5
Windvlaag: 4.9 m/s
22%
04:00
10°
1009.4 hPa
14%
8.4°
5
Windvlaag: 4.8 m/s
21%
05:00
10°
1009.4 hPa
14%
8.4°
5
Windvlaag: 4.8 m/s
14%
06:00
11°
1009.5 hPa
14%
8.4°
5
Windvlaag: 4.9 m/s
12%
07:00
11°
1009.6 hPa
14%
8.7°
5
Windvlaag: 4.8 m/s
12%
08:00
12°
1009.8 hPa
14%
9.1°
6
Windvlaag: 5.2 m/s
15%
09:00
14°
1009.9 hPa
14%
8.7°
7
Windvlaag: 5.2 m/s
22%
10:00
15°
1010.2 hPa
19%
8.4°
7
Windvlaag: 4.9 m/s
25%
11:00
15°
1010.2 hPa
26%
8.2°
7
Windvlaag: 5 m/s
26%
12:00
16°
1010.4 hPa
29%
8.2°
7
Windvlaag: 4.8 m/s
47%
13:00
17°
1010.3 hPa
62%
8.0°
7
Windvlaag: 4.6 m/s
32%
14:00
17°
1010.4 hPa
19%
7.8°
7
Windvlaag: 4.2 m/s
47%
15:00
17°
1010.4 hPa
72%
7.7°
7
Windvlaag: 4.4 m/s
36%
16:00
17°
1010.5 hPa 3.7 mm
70%
8.0°
7
Windvlaag: 4 m/s
58%
17:00
17°
1010.5 hPa
24%
7.9°
6
Windvlaag: 3.9 m/s
53%
18:00
17°
1010.7 hPa
58%
8.3°
5
Windvlaag: 3.7 m/s
51%
19:00
16°
1010.9 hPa
25%
9.2°
5
Windvlaag: 3.5 m/s
31%
20:00
16°
1011.1 hPa
15%
9.4°
4
Windvlaag: 2.7 m/s
18%
21:00
15°
1011.5 hPa
18%
9.3°
3
Windvlaag: 1.6 m/s
32%
22:00
13°
1012.0 hPa
15%
9.2°
3
Windvlaag: 1.5 m/s
35%
23:00
13°
1012.4 hPa
15%
8.9°
3
Windvlaag: 1.7 m/s
36%
 04:59     21:57    Daglengte: 16:58 Dinsdag 18 Jun
00:00
12°
1012.3 hPa
17%
8.8°
3
Windvlaag: 2 m/s
13%
01:00
11°
1012.5 hPa
18%
8.6°
3
Windvlaag: 2.5 m/s
23%
02:00
11°
1012.6 hPa
16%
8.6°
3
Windvlaag: 2.5 m/s
22%
03:00
10°
1012.4 hPa
14%
8.5°
3
Windvlaag: 2.5 m/s
20%
04:00
10°
1012.4 hPa
14%
8.1°
3
Windvlaag: 2.4 m/s
18%
05:00
10°
Voelt als: 8.3°
1012.3 hPa
14%
8.0°
3
Windvlaag: 2.6 m/s
23%
06:00
10°
1012.5 hPa
14%
8.3°
3
Windvlaag: 2.2 m/s
56%
07:00
11°
1012.9 hPa
14%
8.7°
3
Windvlaag: 2.3 m/s
78%
08:00
12°
1012.9 hPa
14%
8.6°
4
Windvlaag: 2.2 m/s
54%
09:00
13°
1012.9 hPa
14%
8.3°
4
Windvlaag: 2.3 m/s
60%
10:00
14°
1012.8 hPa
14%
7.8°
4
Windvlaag: 2.4 m/s
48%
11:00
15°
1012.7 hPa
14%
7.4°
4
Windvlaag: 2.5 m/s
26%
12:00
16°
1012.5 hPa
14%
7.0°
4
Windvlaag: 2.6 m/s
20%
13:00
17°
1012.3 hPa
14%
6.8°
4
Windvlaag: 2.5 m/s
19%
14:00
17°
1011.9 hPa
14%
6.9°
4
Windvlaag: 2.2 m/s
18%
15:00
18°
1011.4 hPa
14%
6.9°
3
Windvlaag: 2 m/s
22%
16:00
18°
1010.8 hPa
21%
5.8°
3
Windvlaag: 1.8 m/s
45%
17:00
18°
1010.5 hPa
21%
5.8°
3
Windvlaag: 1.7 m/s
73%
18:00
18°
1010.1 hPa
21%
5.7°
3
Windvlaag: 1.3 m/s
82%
19:00
18°
1010.0 hPa
22%
6.8°
2
Windvlaag: 0.6 m/s
88%
20:00
17°
1010.1 hPa
26%
8.5°
2
Windvlaag: 0.3 m/s
86%
21:00
16°
1010.2 hPa
21%
9.0°
2
Windvlaag: 0.3 m/s
79%
22:00
14°
1010.5 hPa
25%
9.4°
2
Windvlaag: 0.6 m/s
92%
23:00
13°
1010.5 hPa
78%
9.6°
2
Windvlaag: 0.3 m/s
95%
 04:59     21:57    Daglengte: 16:58 Woensdag 19 Jun
00:00
12°
1010.3 hPa
75%
9.5°
2
Windvlaag: 0.2 m/s
95%
01:00
12°
1010.1 hPa
25%
9.7°
2
Windvlaag: 0.6 m/s
93%
02:00
11°
1009.8 hPa
21%
9.6°
2
Windvlaag: 0.5 m/s
92%
03:00
11°
1009.4 hPa
21%
9.6°
2
Windvlaag: 0.4 m/s
87%
04:00
10°
1009.2 hPa
21%
9.4°
2
Windvlaag: 0.3 m/s
74%
05:00
10°
Voelt als: 8.9°
1009.0 hPa
21%
9.2°
2
Windvlaag: 0.1 m/s
67%
06:00
10°
Voelt als: 8.9°
1009.1 hPa
21%
9.3°
2
Windvlaag: 0.3 m/s
64%
07:00
11°
1009.1 hPa
21%
9.4°
2
Windvlaag: 0.8 m/s
64%
08:00
12°
1008.9 hPa
21%
9.3°
3
Windvlaag: 2 m/s
64%
09:00
13°
1008.8 hPa
21%
9.4°
3
Windvlaag: 1.8 m/s
59%
10:00
14°
1008.6 hPa
78%
9.3°
3
Windvlaag: 1.8 m/s
48%
11:00
15°
1008.3 hPa
89%
8.9°
4
Windvlaag: 2 m/s
43%
12:00
16°
1008.1 hPa
30%
8.4°
4
Windvlaag: 2 m/s
49%
13:00
17°
1008.0 hPa
21%
7.6°
4
Windvlaag: 0.9 m/s
69%
14:00
17°
1007.4 hPa
21%
8.0°
4
Windvlaag: 5.4 m/s
80%
15:00
17°
1007.3 hPa 6.0 mm
88%
8.4°
5
Windvlaag: 6 m/s
43%
16:00
17°
1007.2 hPa 6.0 mm
100%
8.6°
5
Windvlaag: 6.6 m/s
62%
17:00
16°
1007.0 hPa
100%
8.8°
5
Windvlaag: 6.5 m/s
50%
18:00
16°
1006.9 hPa 6.1 mm
100%
8.7°
5
Windvlaag: 8 m/s
55%
Temp/Neerslag /Baro Onweer/Dauwpunt
    Temp Baro Neerslag Dauwpunt Wind Bewolking  
 04:59     21:56    Daglengte: 16:57 Vandaag
19:00
14°
1006.3 hPa   11.8°
5
34%
22:00
13°
1007.6 hPa 0.9 mm 10.2°
5
33%
 04:59     21:56    Daglengte: 16:57 Morgen
01:00
12°
1009.0 hPa   9.2°
5
69%
04:00
10°
1009.4 hPa   8.4°
5
21%
07:00
11°
1009.6 hPa   8.7°
5
12%
10:00
15°
1010.2 hPa   8.4°
7
25%
13:00
17°
1010.3 hPa   8.0°
7
32%
16:00
17°
1010.5 hPa 3.7 mm 8.0°
7
58%
19:00
16°
1010.9 hPa   9.2°
5
31%
22:00
13°
1012.0 hPa   9.2°
3
35%
 04:59     21:57    Daglengte: 16:58 Dinsdag 18 Jun
01:00
11°
1012.5 hPa   8.6°
3
23%
04:00
10°
1012.4 hPa   8.1°
3
18%
07:00
11°
1012.9 hPa   8.7°
3
78%
10:00
14°
1012.8 hPa   7.8°
4
48%
13:00
17°
1012.3 hPa   6.8°
4
19%
16:00
18°
1010.8 hPa   5.8°
3
45%
19:00
18°
1010.0 hPa   6.8°
2
88%
22:00
14°
1010.5 hPa   9.4°
2
92%
 04:59     21:57    Daglengte: 16:58 Woensdag 19 Jun
01:00
12°
1010.1 hPa   9.7°
2
93%
04:00
10°
1009.2 hPa   9.4°
2
74%
07:00
11°
1009.1 hPa   9.4°
2
64%
10:00
14°
1008.6 hPa   9.3°
3
48%
13:00
17°
1008.0 hPa   7.6°
4
69%
16:00
17°
1007.2 hPa 12.0 mm 8.6°
5
62%
19:00
16°
1006.9 hPa 18.2 mm 8.6°
5
53%
22:00
12°
1008.1 hPa 12.0 mm 8.4°
4
56%
 04:59     21:57    Daglengte: 16:58 Donderdag 20 Jun
01:00
11°
1008.3 hPa 12.0 mm 8.0°
4
56%
04:00
10°
1008.4 hPa 12.0 mm 7.9°
5
64%
07:00
10°
1008.6 hPa 12.0 mm 8.0°
5
72%
10:00
12°
1009.3 hPa 12.1 mm 7.6°
5
56%
13:00
15°
1010.1 hPa 12.8 mm 6.7°
5
39%
16:00
14°
1010.9 hPa 15.4 mm 6.9°
4
40%
19:00
13°
1011.8 hPa 16.9 mm 6.9°
4
40%
22:00
11°
1013.6 hPa 17.3 mm 6.7°
3
22%
 04:59     21:58    Daglengte: 16:59 Vrijdag 21 Jun
01:00
Voelt als: 6.7°
1015.4 hPa 17.3 mm 6.2°
2
4%
04:00
Voelt als: 6.5°
1016.5 hPa 17.3 mm 6.0°
3
16%
07:00
Voelt als: 6.5°
1017.6 hPa 17.3 mm 5.9°
3
27%
10:00
12°
1018.5 hPa 17.6 mm 6.2°
3
52%
13:00
15°
1019.4 hPa 18.5 mm 5.5°
3
77%
16:00
15°
1020.1 hPa 19.5 mm 6.0°
3
76%
19:00
15°
1020.7 hPa 19.8 mm 6.4°
2
74%
22:00
12°
1021.8 hPa 20.0 mm 7.1°
2
62%
 05:00     21:58    Daglengte: 16:58 Zaterdag 22 Jun
01:00
10°
1022.7 hPa 20.1 mm 7.1°
1
49%
04:00
10°
1022.9 hPa 20.2 mm 7.5°
1
54%
07:00
11°
1023.0 hPa 20.2 mm 8.1°
1
60%
10:00
13°
1023.1 hPa 20.3 mm 8.4°
2
76%
13:00
16°
1023.1 hPa 20.4 mm 7.9°
3
92%
16:00
16°
1022.9 hPa 20.9 mm 7.3°
3
49%
19:00
16°
1022.7 hPa 21.8 mm 6.7°
3
7%
22:00
13°
1023.1 hPa 21.9 mm 7.6°
3
33%
 05:00     21:58    Daglengte: 16:58 Zondag 23 Jun
01:00
10°
Voelt als: 9.0°
1023.4 hPa 21.9 mm 7.5°
2
59%
04:00
11°
1023.0 hPa 21.9 mm 9.0°
2
70%
07:00
12°
1022.7 hPa 21.9 mm 10.5°
2
82%
10:00
15°
1022.7 hPa 21.9 mm 11.1°
3
83%
13:00
17°
1022.7 hPa 22.1 mm 11.1°
4
85%
16:00
16°
1022.6 hPa   10.8°
4
88%
19:00
16°
1022.5 hPa 44.3 mm 10.4°
3
92%
 05:00     21:58    Daglengte: 16:58 Maandag 24 Jun
01:00
11°
1023.5 hPa 48.6 mm 9.9°
3
39%
07:00
13°
1023.6 hPa 53.0 mm 10.7°
3
13%
13:00
17°
1024.6 hPa 55.1 mm 8.7°
5
11%
19:00
16°
1025.4 hPa 58.6 mm 7.9°
4
2%
 05:01     21:58    Daglengte: 16:57 Dinsdag 25 Jun
01:00
11°
1027.3 hPa 61.1 mm 8.4°
2
0%
07:00
12°
1028.0 hPa 62.2 mm 10.0°
1
1%
13:00
20°
1028.5 hPa 64.8 mm 9.7°
3
70%
19:00
19°
1028.1 hPa 67.7 mm 11.5°
3
62%
 05:01     21:58    Daglengte: 16:57 Woensdag 26 Jun
01:00
12°
1029.3 hPa 68.2 mm 8.3°
2
22%
07:00
10°
Voelt als: 7.0°
1019.8 hPa 68.3 mm 8.1°
5
1%
13:00
16°
1025.2 hPa 0.1 mm 10.3°
3
38%
19:00
16°
1024.1 hPa 0.3 mm 11.5°
2
59%
 05:02     21:58    Daglengte: 16:56 Donderdag 27 Jun
01:00
11°
1023.7 hPa 0.3 mm 9.4°
1
55%
07:00
11°
1021.7 hPa 0.5 mm 9.6°
2
56%
13:00
15°
1020.3 hPa 1.2 mm 11.2°
2
65%
19:00
16°
1018.2 hPa 1.2 mm 12.2°
2
67%
 05:02     21:58    Daglengte: 16:56 Vrijdag 28 Jun
01:00
12°
1017.9 hPa 0.8 mm 10.3°
2
55%
07:00
12°
1016.9 hPa 0.8 mm 10.6°
2
52%
13:00
17°
1016.6 hPa 0.5 mm 12.3°
3
58%
19:00
17°
1015.6 hPa 0.9 mm 13.0°
2
64%
 05:03     21:57    Daglengte: 16:54 Zaterdag 29 Jun
01:00
12°
1015.7 hPa 0.7 mm 10.4°
2
52%
07:00
12°
1014.9 hPa 0.3 mm 10.4°
2
55%
13:00
17°
1014.5 hPa 0.5 mm 12.2°
2
58%
19:00
16°
1013.3 hPa 1.4 mm 12.4°
2
64%
 05:04     21:57    Daglengte: 16:53 Zondag 30 Jun
01:00
12°
1012.8 hPa 0.6 mm 10.3°
2
57%
07:00
12°
1011.7 hPa 0.6 mm 10.5°
2
56%
13:00
16°
1012.1 hPa 0.8 mm 11.6°
2
67%
19:00
16°
1011.9 hPa 1.7 mm 12.2°
2
61%
 05:04     21:57    Daglengte: 16:53 Maandag 01 Jul
01:00
11°
1013.0 hPa 0.4 mm 9.4°
2
46%
07:00
10°
1012.9 hPa 0.3 mm 9.3°
3
30%
13:00
16°
1013.4 hPa 0.6 mm 11.2°
3
49%
  CAPE Lifted Index Hail Supercell Tornado SRH 3km CL BTM PRES CL TOP PRES Swiss DWD icon SMHI TS
 04:59     21:56    Daglengte: 16:57 Vandaag
19:00 70 J/kg 0.8 K 0 % 0 % 0 % 0 m²/s² 0 0 3.62 80
20:00 366 J/kg -1.0 K 0 % 0 % 0 % 0 m²/s² 0 0 2.57 80
21:00 223 J/kg 0.3 K 0 % 0 % 0 % 0 m²/s² 0 0 2.46 2
22:00 104 J/kg 1.5 K 0 % 0 % 0 % 0 m²/s² 0 0 1.8 2
23:00 166 J/kg 1.4 K 0 % 0 % 0 % 0 m²/s² 0 0 2.96 2
 04:59     21:56    Daglengte: 16:57 Morgen
00:00 158 J/kg 1.8 K 0 % 0 % 0 % 0 m²/s² 0 0 2.94 2
01:00 133 J/kg 2.0 K 0 % 0 % 0 % 0 m²/s² 0 0 4.82 3
02:00 73 J/kg 2.8 K 0 % 0 % 0 % 0 m²/s² 0 0 6.19 3
03:00 0 J/kg 4.7 K 0 % 0 % 0 % 0 m²/s² 0 0 8.84 3
04:00 0 J/kg 5.0 K 0 % 0 % 0 % 0 m²/s² 0 0 10.22 3
05:00 0 J/kg 4.8 K 0 % 0 % 0 % 0 m²/s² 0 0 9.27 1
06:00 4 J/kg 4.7 K 0 % 0 % 0 % 0 m²/s² 0 0 8.45 1
07:00 26 J/kg 4.2 K 0 % 0 % 0 % 0 m²/s² 0 0 7.59 2
08:00 67 J/kg 3.3 K 0 % 0 % 0 % 0 m²/s² 0 0 6.6 1
09:00 97 J/kg 2.4 K 0 % 0 % 0 % 0 m²/s² 0 0 5.52 2
10:00 110 J/kg 1.8 K 0 % 0 % 0 % 0 m²/s² 0 0 5.1 2
11:00 153 J/kg 1.3 K 0 % 0 % 0 % 0 m²/s² 0 0 4.66 2
12:00 153 J/kg 1.3 K 0 % 0 % 0 % 0 m²/s² 0 0 4.42 3
13:00 164 J/kg 1.2 K 0 % 0 % 0 % 0 m²/s² 0 0 4.41 2
14:00 194 J/kg 1.1 K 0 % 0 % 0 % 0 m²/s² 0 0 4.04 3
15:00 235 J/kg 0.7 K 0 % 0 % 0 % 0 m²/s² 0 0 3.34 2
16:00 269 J/kg 0.3 K 0 % 0 % 0 % 0 m²/s² 0 0 2.73 80
17:00 270 J/kg 0.2 K 0 % 0 % 0 % 0 m²/s² 0 0 2.84 3
18:00 250 J/kg 0.2 K 0 % 0 % 0 % 0 m²/s² 0 0 3.08 3
19:00 229 J/kg 0.4 K 0 % 0 % 0 % 0 m²/s² 0 0 3.88 2
20:00 178 J/kg 0.9 K 0 % 0 % 0 % 0 m²/s² 0 0 4.74 3
21:00 102 J/kg 1.7 K 0 % 0 % 0 % 0 m²/s² 0 0 6.2 3
22:00 16 J/kg 3.2 K 0 % 0 % 0 % 0 m²/s² 0 0 7.7 3
23:00 0 J/kg 3.9 K 0 % 0 % 0 % 0 m²/s² 0 0 8.64 3
 04:59     21:57    Daglengte: 16:58 Dinsdag 18 Jun
00:00 0 J/kg 4.0 K 0 % 0 % 0 % 0 m²/s² 0 0 8.89 2
01:00 0 J/kg 3.8 K 0 % 0 % 0 % 0 m²/s² 0 0 8.84 2
02:00 0 J/kg 4.3 K 0 % 0 % 0 % 0 m²/s² 0 0 9.19 3
03:00 0 J/kg 5.2 K 0 % 0 % 0 % 0 m²/s² 0 0 10.24 2
04:00 0 J/kg 5.6 K 0 % 0 % 0 % 0 m²/s² 0 0 10.64 3
05:00 0 J/kg 5.9 K 0 % 0 % 0 % 0 m²/s² 0 0 10.94 3
06:00 0 J/kg 6.6 K 0 % 0 % 0 % 0 m²/s² 0 0 11.76 3
07:00 0 J/kg 6.5 K 0 % 0 % 0 % 0 m²/s² 0 0 11.69 3
08:00 0 J/kg 6.2 K 0 % 0 % 0 % 0 m²/s² 0 0 11.39 3
09:00 0 J/kg 6.5 K 0 % 0 % 0 % 0 m²/s² 0 0 11.42 3
10:00 0 J/kg 6.6 K 0 % 0 % 0 % 0 m²/s² 0 0 11.16 3
11:00 1 J/kg 6.5 K 0 % 0 % 0 % 0 m²/s² 0 0 10.94 1
12:00 2 J/kg 6.5 K 0 % 0 % 0 % 0 m²/s² 0 0 10.43 1
13:00 6 J/kg 6.2 K 0 % 0 % 0 % 0 m²/s² 0 0 8.9 0
14:00 14 J/kg 6.1 K 0 % 0 % 0 % 0 m²/s² 0 0 7.93 0
15:00 37 J/kg 5.6 K 0 % 0 % 0 % 0 m²/s² 0 0 7.13 1
16:00 39 J/kg 5.4 K 0 % 0 % 0 % 0 m²/s² 0 0 6.72 2
17:00 37 J/kg 5.2 K 0 % 0 % 0 % 0 m²/s² 0 0 6.16 3
18:00 41 J/kg 4.9 K 0 % 0 % 0 % 0 m²/s² 0 0 5.77 2
19:00 59 J/kg 5.0 K 0 % 0 % 0 % 0 m²/s² 0 0 5.81 3
20:00 74 J/kg 4.5 K 0 % 0 % 0 % 0 m²/s² 0 0 5.31 3
21:00 73 J/kg 4.5 K 0 % 0 % 0 % 0 m²/s² 0 0 5.52 3
22:00 41 J/kg 5.3 K 0 % 0 % 0 % 0 m²/s² 0 0 6.2 3
23:00 28 J/kg 5.2 K 0 % 0 % 0 % 0 m²/s² 0 0 6.07 3
 04:59     21:57    Daglengte: 16:58 Woensdag 19 Jun
00:00 45 J/kg 5.0 K 0 % 0 % 0 % 0 m²/s² 0 0 6.05 3
01:00 35 J/kg 5.1 K 0 % 0 % 0 % 0 m²/s² 0 0 5.61 3
02:00 19 J/kg 5.0 K 0 % 0 % 0 % 0 m²/s² 0 0 5.3 3
03:00 0 J/kg 5.1 K 0 % 0 % 0 % 0 m²/s² 0 0 5.34 3
04:00 0 J/kg 5.2 K 0 % 0 % 0 % 0 m²/s² 0 0 5.41 3
05:00 0 J/kg 5.3 K 0 % 0 % 0 % 0 m²/s² 0 0 5.54 3
06:00 0 J/kg 5.4 K 0 % 0 % 0 % 0 m²/s² 0 0 5.91 45
07:00 0 J/kg 5.8 K 0 % 0 % 0 % 0 m²/s² 0 0 6.76 3
08:00 0 J/kg 6.0 K 0 % 0 % 0 % 0 m²/s² 0 0 7.56 3
09:00 28 J/kg 5.5 K 0 % 0 % 0 % 0 m²/s² 0 0 8.17 3
10:00 44 J/kg 4.7 K 0 % 0 % 0 % 0 m²/s² 0 0 8.6 3
11:00 30 J/kg 4.8 K 0 % 0 % 0 % 0 m²/s² 0 0 9 2
12:00 39 J/kg 4.9 K 0 % 0 % 0 % 0 m²/s² 0 0 9.67 2
13:00 66 J/kg 4.9 K 0 % 0 % 0 % 0 m²/s² 0 0 10.33 2
14:00 84 J/kg 4.9 K 0 % 0 % 0 % 0 m²/s² 0 0 10.99 3
15:00 98 J/kg 4.7 K 0 % 0 % 0 % 0 m²/s² 0 0 9.23 80
16:00 135 J/kg 4.0 K 0 % 0 % 0 % 0 m²/s² 0 0 5.92 80
17:00 156 J/kg 3.8 K 0 % 0 % 0 % 0 m²/s² 0 0 5.6 2
18:00 115 J/kg 4.3 K 0 % 0 % 0 % 0 m²/s² 0 0 6.22 80
Temp Baro Wind Neerslag
  EWN Forecast EWN WRFDA DWD ICON FMI HIRLAM MET Norway GFS
 04:59     21:56    Daglengte: 16:57 Vandaag
19:00 14.2° 1006.3 hPa 5.4 m/s 0.0 mm 14.4° 1005.4 hPa 5.7 m/s 2.4 mm 14.8° 1006.7 hPa 6.8 m/s -0.2 mm 16.4° 1006.5 hPa 4.5 m/s 0.0 mm 13.5° 1005.7 hPa 4.9 m/s 2.4 mm 12.8° 1007.0 hPa 4.9 m/s
22:00 12.6° 1007.6 hPa 4.8 m/s 0.9 mm 13.0° 1006.6 hPa 3.8 m/s 13.6 mm 12.8° 1007.8 hPa 5.0 m/s 0.9 mm 14.8° 1007.4 hPa 6.5 m/s 0.0 mm 11.7° 1007.7 hPa 4.5 m/s 0.6 mm 11.2° 1008.1 hPa 4.7 m/s
 04:59     21:56    Daglengte: 16:57 Morgen
01:00 11.5° 1009.0 hPa 4.6 m/s 0.0 mm 12.5° 1007.7 hPa 4.5 m/s 42.8 mm 11.6° 1009.2 hPa 4.2 m/s 0.1 mm 12.8° 1009.2 hPa 5.0 m/s 0.0 mm 10.9° 1009.0 hPa 4.3 m/s 0.0 mm 10.0° 1009.1 hPa 3.9 m/s
04:00 10.4° 1009.4 hPa 5.0 m/s 0.0 mm 10.0° 1008.1 hPa 4.6 m/s 50.1 mm 10.2° 1009.5 hPa 4.6 m/s 0.0 mm 13.0° 1010.1 hPa 5.6 m/s 0.0 mm 9.9° 1009.2 hPa 4.8 m/s 0.0 mm 8.7° 1009.2 hPa 4.9 m/s
07:00 11.3° 1009.6 hPa 5.3 m/s 0.0 mm 12.0° 1008.2 hPa 6.2 m/s 50.1 mm 11.2° 1009.6 hPa 5.6 m/s 0.0 mm 12.9° 1010.7 hPa 4.4 m/s 0.0 mm 11.1° 1009.4 hPa 4.7 m/s 0.0 mm 10.2° 1009.5 hPa 5.5 m/s
10:00 14.5° 1010.2 hPa 7.0 m/s 0.0 mm 14.8° 1008.8 hPa 7.4 m/s 50.1 mm 14.4° 1010.4 hPa 8.6 m/s 0.0 mm 14.7° 1011.5 hPa 5.3 m/s 0.0 mm 14.5° 1009.4 hPa 6.6 m/s 0.0 mm 14.0° 1009.7 hPa 7.5 m/s
13:00 16.6° 1010.3 hPa 7.1 m/s 0.0 mm 16.8° 1008.7 hPa 7.8 m/s 50.1 mm 17.0° 1010.2 hPa 9.4 m/s 0.0 mm 16.1° 1011.6 hPa 4.5 m/s 0.0 mm 16.7° 1010.2 hPa 6.9 m/s 0.3 mm 16.1° 1010.1 hPa 8.0 m/s
16:00 17.4° 1010.5 hPa 6.7 m/s 3.7 mm 17.6° 1009.2 hPa 7.4 m/s 50.1 mm 17.5° 1010.6 hPa 8.4 m/s 0.4 mm 17.1° 1011.1 hPa 4.3 m/s 0.0 mm 17.7° 1010.3 hPa 6.1 m/s 0.0 mm 16.0° 1010.4 hPa 7.0 m/s
19:00 16.3° 1010.9 hPa 4.9 m/s 0.0 mm 17.0° 1009.5 hPa 6.0 m/s 50.1 mm 16.6° 1011.1 hPa 6.6 m/s 0.0 mm 16.8° 1011.5 hPa 3.9 m/s 0.0 mm 15.9° 1010.9 hPa 3.7 m/s 0.0 mm 14.9° 1011.0 hPa 4.7 m/s
22:00 13.3° 1012.0 hPa 2.8 m/s 0.0 mm 12.8° 1010.7 hPa 2.9 m/s 50.1 mm 13.6° 1012.1 hPa 3.2 m/s 0.0 mm 15.5° 1012.3 hPa 1.9 m/s 0.0 mm 13.1° 1011.9 hPa 2.6 m/s 0.0 mm 10.6° 1012.6 hPa 2.9 m/s
 04:59     21:57    Daglengte: 16:58 Dinsdag 18 Jun
01:00 11.1° 1012.5 hPa 3.1 m/s 0.0 mm 10.4° 1011.3 hPa 3.9 m/s 50.1 mm 11.0° 1013.0 hPa 3.3 m/s 0.0 mm 14.8° 1012.4 hPa 2.2 m/s 0.0 mm 10.8° 1012.5 hPa 2.8 m/s 0.0 mm 8.4° 1012.8 hPa 3.3 m/s
04:00 10.0° 1012.4 hPa 3.0 m/s 0.0 mm 10.0° 1011.2 hPa 3.8 m/s 50.1 mm 9.8° 1012.8 hPa 3.1 m/s 0.0 mm 14.3° 1012.5 hPa 1.9 m/s 0.0 mm 9.4° 1012.3 hPa 2.8 m/s 0.0 mm 7.5° 1012.5 hPa 3.3 m/s
07:00 10.9° 1012.9 hPa 3.4 m/s 0.0 mm 11.0° 1011.3 hPa 4.1 m/s 50.1 mm 10.5° 1013.3 hPa 4.7 m/s 0.0 mm 14.1° 1012.7 hPa 2.1 m/s 0.0 mm 10.7° 1012.9 hPa 2.8 m/s 0.0 mm 9.7° 1012.5 hPa 3.4 m/s
10:00 14.1° 1012.8 hPa 4.0 m/s 0.0 mm 14.2° 1011.4 hPa 4.4 m/s 50.1 mm 13.6° 1013.5 hPa 4.9 m/s 0.0 mm 15.1° 1012.8 hPa 3.4 m/s 0.0 mm 14.2° 1012.7 hPa 3.5 m/s 0.0 mm 13.7° 1012.7 hPa 4.3 m/s
13:00 16.7° 1012.3 hPa 3.6 m/s 0.0 mm 16.7° 1010.7 hPa 3.0 m/s 50.1 mm 16.7° 1012.7 hPa 3.9 m/s 0.0 mm 16.2° 1012.4 hPa 3.4 m/s 0.0 mm 17.0° 1012.1 hPa 3.7 m/s 0.0 mm 16.4° 1012.3 hPa 3.9 m/s
16:00 18.2° 1010.8 hPa 3.5 m/s 0.0 mm 18.4° 1009.5 hPa 2.8 m/s 50.1 mm 18.2° 1011.5 hPa 4.0 m/s 0.0 mm 18.2° 1010.9 hPa 3.5 m/s 0.0 mm 17.3° 1011.5 hPa 3.5 m/s
19:00 17.7° 1010.0 hPa 2.2 m/s 0.0 mm 18.2° 1008.5 hPa 2.8 m/s 50.1 mm 17.8° 1010.3 hPa 2.0 m/s 0.0 mm 17.8° 1010.1 hPa 1.9 m/s 0.0 mm 16.6° 1010.5 hPa 2.4 m/s
22:00 13.8° 1010.5 hPa 2.3 m/s 0.0 mm 15.2° 1008.7 hPa 1.5 m/s 50.1 mm 14.2° 1010.4 hPa 2.4 m/s 0.0 mm 13.6° 1010.8 hPa 2.6 m/s 0.0 mm 12.5° 1011.1 hPa 1.5 m/s
 04:59     21:57    Daglengte: 16:58 Woensdag 19 Jun
01:00 11.7° 1010.1 hPa 1.6 m/s 0.0 mm 12.9° 1007.9 hPa 1.7 m/s 50.1 mm 11.9° 1009.6 hPa 1.6 m/s 0.1 mm 11.0° 1010.5 hPa 1.3 m/s 0.0 mm 11.1° 1010.1 hPa 1.3 m/s
04:00 10.3° 1009.2 hPa 2.3 m/s 0.0 mm 11.6° 1007.2 hPa 2.0 m/s 50.7 mm 10.3° 1008.6 hPa 1.5 m/s 0.0 mm 9.4° 1009.5 hPa 2.2 m/s 0.0 mm 10.1° 1009.2 hPa 1.9 m/s
07:00 10.6° 1009.1 hPa 2.4 m/s 0.0 mm 11.0° 1006.4 hPa 2.4 m/s 52.5 mm 11.1° 1008.2 hPa 1.6 m/s 0.0 mm 10.5° 1009.4 hPa 2.3 m/s 0.0 mm 9.8° 1008.4 hPa 2.1 m/s
10:00 13.9° 1008.6 hPa 3.5 m/s 0.0 mm 14.5° 1006.7 hPa 3.7 m/s 53.0 mm 14.9° 1007.6 hPa 3.3 m/s 0.0 mm 13.7° 1008.8 hPa 3.4 m/s 10.3° 1008.2 hPa 2.5 m/s
13:00 16.8° 1008.0 hPa 4.5 m/s 0.0 mm 16.6° 1006.0 hPa 3.8 m/s 53.0 mm 17.5° 1007.1 hPa 4.6 m/s 0.0 mm 16.9° 1008.3 hPa 4.4 m/s 16.3° 1007.6 hPa 3.2 m/s
16:00 16.7° 1007.2 hPa 4.8 m/s 12.0 mm 17.5° 1005.4 hPa 4.9 m/s 53.0 mm 17.2° 1006.6 hPa 5.7 m/s 0.4 mm 16.1° 1008.0 hPa 4.5 m/s 15.5° 1007.1 hPa 5.4 m/s
19:00 15.5° 1006.9 hPa 5.0 m/s 18.2 mm 16.2° 1005.1 hPa 6.4 m/s 53.8 mm 15.6° 1006.6 hPa 5.4 m/s 0.4 mm 15.3° 1007.6 hPa 4.5 m/s 14.1° 1006.9 hPa 4.1 m/s
22:00 12.2° 1008.1 hPa 4.2 m/s 12.0 mm 12.4° 1008.1 hPa 4.2 m/s 10.0° 1008.1 hPa 3.4 m/s 12.0 mm
 04:59     21:57    Daglengte: 16:58 Donderdag 20 Jun
01:00 10.6° 1008.3 hPa 4.1 m/s 12.0 mm 10.9° 1008.3 hPa 4.1 m/s 7.9° 1007.9 hPa 4.1 m/s 12.0 mm
04:00 10.2° 1008.4 hPa 4.7 m/s 12.0 mm 10.6° 1008.5 hPa 4.8 m/s 6.3° 1008.0 hPa 3.6 m/s 12.0 mm
07:00 10.1° 1008.6 hPa 5.4 m/s 12.0 mm 10.3° 1008.6 hPa 5.5 m/s 8.2° 1008.0 hPa 4.7 m/s 12.0 mm
10:00 12.4° 1009.3 hPa 5.1 m/s 12.1 mm 12.4° 1009.4 hPa 5.0 m/s 12.4° 1008.5 hPa 5.8 m/s 12.1 mm
13:00 14.6° 1010.1 hPa 4.7 m/s 12.8 mm 14.6° 1010.2 hPa 4.5 m/s 14.3° 1008.5 hPa 6.7 m/s 12.8 mm
16:00 14.0° 1010.9 hPa 4.3 m/s 15.4 mm 13.9° 1011.1 hPa 4.2 m/s 14.6° 1008.8 hPa 5.8 m/s 15.4 mm
19:00 13.2° 1011.8 hPa 4.0 m/s 16.9 mm 13.2° 1012.0 hPa 3.9 m/s 13.5° 1009.5 hPa 4.7 m/s 16.9 mm
22:00 10.6° 1013.6 hPa 3.2 m/s 17.3 mm 10.8° 1013.9 hPa 3.1 m/s 9.4° 1011.1 hPa 3.2 m/s 17.3 mm
 04:59     21:58    Daglengte: 16:59 Vrijdag 21 Jun
01:00 8.2° 1015.4 hPa 2.4 m/s 17.3 mm 8.3° 1015.7 hPa 2.4 m/s 7.1° 1012.2 hPa 2.8 m/s 17.3 mm
04:00 8.1° 1016.5 hPa 2.7 m/s 17.3 mm 8.4° 1016.8 hPa 2.7 m/s 5.9° 1013.2 hPa 2.9 m/s 17.3 mm
07:00 8.3° 1017.6 hPa 3.0 m/s 17.3 mm 8.4° 1017.9 hPa 3.0 m/s 7.1° 1014.3 hPa 3.0 m/s 17.3 mm
10:00 11.6° 1018.5 hPa 3.2 m/s 17.6 mm 11.6° 1018.8 hPa 3.2 m/s 11.5° 1015.7 hPa 3.0 m/s 17.6 mm
13:00 14.5° 1019.4 hPa 3.3 m/s 18.5 mm 14.7° 1019.7 hPa 3.4 m/s 12.9° 1016.6 hPa 2.4 m/s 18.5 mm
16:00 14.9° 1020.1 hPa 2.8 m/s 19.5 mm 14.9° 1020.4 hPa 2.9 m/s 14.6° 1017.1 hPa 2.3 m/s 19.5 mm
19:00 15.1° 1020.7 hPa 2.3 m/s 19.8 mm 15.1° 1021.0 hPa 2.4 m/s 14.8° 1017.3 hPa 1.4 m/s 19.8 mm
22:00 12.4° 1021.8 hPa 1.6 m/s 20.0 mm 12.6° 1022.0 hPa 1.6 m/s 10.0° 1018.6 hPa 1.3 m/s 20.0 mm
 05:00     21:58    Daglengte: 16:58 Zaterdag 22 Jun
01:00 10.1° 1022.7 hPa 0.9 m/s 20.1 mm 10.1° 1023.1 hPa 0.8 m/s 9.7° 1018.7 hPa 1.5 m/s 20.1 mm
04:00 10.3° 1022.9 hPa 1.1 m/s 20.2 mm 10.4° 1023.3 hPa 1.1 m/s 8.6° 1018.1 hPa 1.5 m/s 20.2 mm
07:00 10.8° 1023.0 hPa 1.3 m/s 20.2 mm 10.8° 1023.5 hPa 1.3 m/s 10.3° 1018.0 hPa 1.5 m/s 20.2 mm
10:00 13.4° 1023.1 hPa 2.2 m/s 20.3 mm 13.6° 1023.5 hPa 2.1 m/s 12.0° 1017.7 hPa 2.3 m/s 20.3 mm
13:00 16.2° 1023.1 hPa 3.1 m/s 20.4 mm 16.3° 1023.6 hPa 3.0 m/s 15.1° 1017.5 hPa 4.6 m/s 20.4 mm
16:00 16.2° 1022.9 hPa 3.3 m/s 20.9 mm 16.1° 1023.4 hPa 3.2 m/s 16.5° 1017.1 hPa 4.7 m/s 20.9 mm
19:00 15.9° 1022.7 hPa 3.3 m/s 21.8 mm 16.0° 1023.2 hPa 3.4 m/s 14.4° 1016.9 hPa 2.3 m/s 21.8 mm
22:00 12.7° 1023.1 hPa 2.6 m/s 21.9 mm 12.8° 1023.6 hPa 2.6 m/s 11.6° 1017.3 hPa 1.6 m/s 21.9 mm
 05:00     21:58    Daglengte: 16:58 Zondag 23 Jun
01:00 9.8° 1023.4 hPa 1.9 m/s 21.9 mm 9.7° 1024.0 hPa 1.9 m/s 10.8° 1016.6 hPa 1.9 m/s 21.9 mm
04:00 10.9° 1023.0 hPa 1.9 m/s 21.9 mm 10.9° 1023.7 hPa 1.9 m/s 11.2° 1015.7 hPa 2.3 m/s 21.9 mm
07:00 12.1° 1022.7 hPa 2.0 m/s 21.9 mm 12.1° 1023.4 hPa 1.9 m/s 11.8° 1015.0 hPa 2.7 m/s 21.9 mm
10:00 14.6° 1022.7 hPa 2.9 m/s 21.9 mm 14.6° 1023.5 hPa 2.9 m/s 15.6° 1013.9 hPa 3.2 m/s 21.9 mm
13:00 17.0° 1022.7 hPa 4.0 m/s 22.1 mm 17.0° 1023.6 hPa 3.9 m/s 17.3° 1012.3 hPa 4.8 m/s 22.1 mm
16:00 16.4° 1022.6 hPa 3.7 m/s 22.1 mm 16.4° 1023.7 hPa 3.5 m/s 17.3° 1010.5 hPa 5.9 m/s 22.1 mm
19:00 15.6° 1022.5 hPa 3.3 m/s 22.2 mm 15.7° 1023.7 hPa 3.2 m/s 14.8° 1008.9 hPa 4.3 m/s 22.2 mm
 05:00     21:58    Daglengte: 16:58 Maandag 24 Jun
01:00 10.8° 1023.5 hPa 2.5 m/s 25.2 mm 10.6° 1025.2 hPa 2.3 m/s 12.5° 1004.5 hPa 5.1 m/s 25.2 mm
07:00 12.7° 1023.6 hPa 2.7 m/s 26.6 mm 12.6° 1025.8 hPa 2.6 m/s 13.7° 999.8 hPa 4.3 m/s 26.6 mm
13:00 17.1° 1024.6 hPa 4.6 m/s 28.0 mm 17.0° 1027.0 hPa 4.6 m/s 18.3° 998.2 hPa 4.2 m/s 28.0 mm
19:00 16.2° 1025.4 hPa 3.6 m/s 29.7 mm 16.2° 1028.0 hPa 3.7 m/s 15.7° 996.9 hPa 2.4 m/s 29.7 mm
 05:01     21:58    Daglengte: 16:57 Dinsdag 25 Jun
01:00 10.7° 1027.3 hPa 1.8 m/s 31.0 mm 10.6° 1029.9 hPa 1.9 m/s 12.3° 998.3 hPa 0.5 m/s 31.0 mm
07:00 11.8° 1028.0 hPa 1.5 m/s 31.2 mm 11.7° 1030.5 hPa 1.4 m/s 13.2° 1000.2 hPa 2.2 m/s 31.2 mm
13:00 19.7° 1028.5 hPa 3.1 m/s 33.3 mm 20.3° 1030.6 hPa 2.8 m/s 13.6° 1005.2 hPa 5.9 m/s 33.3 mm
19:00 18.8° 1028.1 hPa 2.7 m/s 34.0 mm 19.3° 1029.7 hPa 2.3 m/s 13.4° 1010.2 hPa 7.1 m/s 34.0 mm
 05:01     21:58    Daglengte: 16:57 Woensdag 26 Jun
01:00 11.8° 1029.3 hPa 1.7 m/s 34.1 mm 11.8° 1030.5 hPa 1.3 m/s 11.3° 1016.0 hPa 6.4 m/s 34.1 mm
07:00 9.5° 1019.8 hPa 5.0 m/s 34.1 mm 9.5° 1019.8 hPa 5.0 m/s 34.1 mm
13:00 15.6° 1025.2 hPa 3.0 m/s 0.1 mm
19:00 15.9° 1024.1 hPa 2.0 m/s 0.3 mm
 05:02     21:58    Daglengte: 16:56 Donderdag 27 Jun
01:00 10.9° 1023.7 hPa 1.4 m/s 0.3 mm
07:00 10.9° 1021.7 hPa 1.8 m/s 0.5 mm
13:00 15.3° 1020.3 hPa 1.8 m/s 1.2 mm
19:00 15.8° 1018.2 hPa 2.0 m/s 1.2 mm
 05:02     21:58    Daglengte: 16:56 Vrijdag 28 Jun
01:00 11.6° 1017.9 hPa 2.4 m/s 0.8 mm
07:00 11.9° 1016.9 hPa 2.4 m/s 0.8 mm
13:00 16.7° 1016.6 hPa 2.5 m/s 0.5 mm
19:00 16.7° 1015.6 hPa 2.4 m/s 0.9 mm
 05:03     21:57    Daglengte: 16:54 Zaterdag 29 Jun
01:00 11.8° 1015.7 hPa 2.2 m/s 0.7 mm
07:00 11.7° 1014.9 hPa 2.1 m/s 0.3 mm
13:00 16.6° 1014.5 hPa 2.1 m/s 0.5 mm
19:00 16.4° 1013.3 hPa 1.7 m/s 1.4 mm
 05:04     21:57    Daglengte: 16:53 Zondag 30 Jun
01:00 11.5° 1012.8 hPa 1.9 m/s 0.6 mm
07:00 11.6° 1011.7 hPa 2.0 m/s 0.6 mm
13:00 15.6° 1012.1 hPa 2.4 m/s 0.8 mm
19:00 15.6° 1011.9 hPa 2.1 m/s 1.7 mm
 05:04     21:57    Daglengte: 16:53 Maandag 01 Jul
01:00 10.7° 1013.0 hPa 2.4 m/s 0.4 mm
07:00 10.4° 1012.9 hPa 2.6 m/s 0.3 mm
13:00 15.8° 1013.4 hPa 2.8 m/s 0.6 mm
FMI Hirlam - 7.5 km EWN WRFDA - 12 km DWD ICON - 7 km GFS - 25 km Basiskaart






























































Updatetijd (Europe/Amsterdam) Resolutie Lengte Stap
FMI Hirlam 19:00, 01:00, 07:00, 13:00 7.5 km 49h 1h
EWN WRFDA 16:15, 22:15, 04:15, 10:15 12 km 73h 1h
DWD ICON 18:00, 00:00, 06:00, 12:00 7 km 75h 1h
GFS 14:30, 20:30, 02:30, 08:30 25 km 237h 3h
30+ mm
25-30 mm
20-25 mm
15-20 mm
10-15 mm
6-10 mm
4-6 mm
2-4 mm
1-2 mm
0.5-1 mm
0.2-0.5 mm
0.1-0.2 mm
30+ mm
25-30 mm
20-25 mm
15-20 mm
10-15 mm
6-10 mm
4-6 mm
2-4 mm
1-2 mm
0.5-1 mm
0.2-0.5 mm
0.1-0.2 mm
Sneeuwval
Natte sneeuw
Hagel
Vorst
30+ mm
25-30 mm
20-25 mm
15-20 mm
10-15 mm
6-10 mm
4-6 mm
2-4 mm
1-2 mm
0.5-1 mm
0.2-0.5 mm
0.1-0.2 mm
Sneeuwval
Natte sneeuw
Hagel
Vorst
Onweer
50 mm
40 mm
30 mm
26 mm
22 mm
18 mm
14 mm
10 mm
9 mm
8 mm
7 mm
6 mm
5 mm
4.5 mm
4 mm
3.5 mm
3 mm
2.5 mm
2 mm
1.5 mm
1 mm
0.8 mm
0.6 mm
0.4 mm
0.2 mm
0.05 mm
35°
30°
25°
20°
15°
10°
-5°
-10°
-15°
-20°
-25°
-30°
-35°
33> m/s
29 m/s
25 m/s
21 m/s
17 m/s
14 m/s
11 m/s
8 m/s
5 m/s
3 m/s
0 m/s
2600 J/kg
2400 J/kg
2200 J/kg
2000 J/kg
1800 J/kg
1600 J/kg
1400 J/kg
1200 J/kg
1000 J/kg
800 J/kg
600 J/kg
400 J/kg
200 J/kg
70 dBZ
65 dBZ
60 dBZ
55 dBZ
50 dBZ
45 dBZ
40 dBZ
35 dBZ
30 dBZ
25 dBZ
20 dBZ
15 dBZ
10 dBZ
5 dBZ
-1 K
-2 K
-3 K
-4 K
-5 K
-6 K
-7 K
-8 K
-9 K
950 m²/s²
900 m²/s²
850 m²/s²
800 m²/s²
750 m²/s²
700 m²/s²
650 m²/s²
600 m²/s²
550 m²/s²
500 m²/s²
450 m²/s²
400 m²/s²
350 m²/s²
300 m²/s²
250 m²/s²
200 m²/s²
150 m²/s²
100 m²/s²
46 m/s
44 m/s
42 m/s
40 m/s
38 m/s
36 m/s
34 m/s
32 m/s
30 m/s
28 m/s
26 m/s
24 m/s
22 m/s
20 m/s
16 m/s
12 m/s
8 m/s
4 m/s
30 m/s
28 m/s
26 m/s
24 m/s
22 m/s
20 m/s
18 m/s
16 m/s
14 m/s
12 m/s
10 m/s
8 m/s
6 m/s
4 m/s
2 m/s
3.0
2.8
2.6
2.4
2.2
2.0
1.8
1.6
1.4
1.2
1.0
0.8
0.6
0.4
0.2
15
14
13
12
11
10
9
8
7
6
5
4
3
2
1
90%
80%
70%
60%
50%
40%
30%
20%
10%
42
40
38
36
34
32
30
28
26
24
22
20
18
16
14
12
90+ cm
80-90 cm
70-80 cm
60-70 cm
50-60 cm
40-50 cm
30-40 cm
20-30 cm
10-20 cm
1-10 cm
Sneeuwval
Natte sneeuw
Regen
>120 mm
115 mm
110 mm
105 mm
100 mm
95 mm
90 mm
85 mm
80 mm
75 mm
70 mm
65 mm
60 mm
55 mm
50 mm
45 mm
45 mm
40 mm
35 mm
30 mm
25 mm
20 mm
15 mm
10 mm
5 mm
0.1 mm
960 hPa
880 hPa
800 hPa
7